Regional Weather Roundup
Issued by NWS

Home | Current Version | Previous Version | Graphics & Text | Print | Product List | Glossary On
Versions: 1 2 3 4 5 6 7 8 9 10 11 12 13 14 15 16 17 18 19 20 21 22 23 24 25 26 27 28 29 30 31 32 33 34 35 36 37 38 39 40 41 42 43 44 45 46 47 48 49 50
000
ASUS43 KMKX 011111
RWRWI

WISCONSIN REGIONAL WEATHER ROUNDUP
NATIONAL WEATHER SERVICE MILWAUKEE/SULLIVAN WI
600 AM CDT FRI AUG 01 2014

NOTE: "FAIR" INDICATES FEW OR NO CLOUDS BELOW 12,000 FEET WITH NO
SIGNIFICANT WEATHER AND/OR OBSTRUCTIONS TO VISIBILITY.

WIZ001-002-006>008-014>016-023>028-011200-
NORTHWEST WISCONSIN

CITY           SKY/WX    TMP DP  RH WIND       PRES   REMARKS
SUPERIOR ARPT  FOG       51  51 100 CALM      30.03R VSB 3/4
ASHLAND        CLEAR     49  48  97 SW3       30.03R
HAYWARD        FOG       53  53 100 N5        30.04R VSB 1/2
SIREN          CLEAR     54  53  96 CALM      30.04R
RICE LAKE      MOCLDY    58  57  96 CALM      30.05R FOG
LADYSMITH      FOG       56  55  97 CALM      30.05R VSB 1/4
EAU CLAIRE     CLEAR     62  61  96 SW5       30.03R
MENOMONIE      SUNNY     59  57  94 CALM      30.04R
NEW RICHMOND   CLEAR     59  58  96 SW3       30.04S
OSCEOLA        CLEAR     56  56 100 CALM      30.06R
$$

WIZ003>005-009-010-017-018-011200-
NORTH CENTRAL WISCONSIN

CITY           SKY/WX    TMP DP  RH WIND       PRES   REMARKS
WOODRUFF         N/A     52  46  79 CALM      30.04R HAZE
RHINELANDER    FOG       51  51 100 CALM      30.05R VSB 1/4
EAGLE RIVER    CLEAR     47  47 100 CALM      30.04R FOG
LAND O LAKES   FOG       45  45 100 CALM      30.05R VSB<1/4
PHILLIPS       FOG       53  53 100 CALM      30.04R VSB 1/4
TOMAHAWK       FOG       47  47  97 CALM      30.05R VSB 1/4
MEDFORD        FOG       53  53 100 CALM      30.04R VSB<1/4
MERRILL        FOG       50  50 100 CALM      30.04S VSB<1/4
$$

WIZ029-030-035-036-043>047-011200-
CENTRAL WISCONSIN

CITY           SKY/WX    TMP DP  RH WIND       PRES   REMARKS
WAUSAU         CLEAR     57  56  96 CALM      30.02R FOG
MOSINEE        CLOUDY    54  54 100 CALM      30.04S
MARSHFIELD     CLEAR     61  57  87 CALM      30.04R
STEVENS POINT  FOG       52  52  99 CALM      30.04S VSB 1/2
WAUPACA        CLEAR     58  56  94 CALM      30.03R
WAUTOMA        MOCLDY    56  54  93 CALM      30.05R
WISC RAPIDS    CLEAR     58  57  97 CALM      30.05R FOG
CAMP DOUGLAS   CLEAR     57  57 100 CALM      30.04R
$$

WIZ011>013-019>022-031-037>040-048>050-011200-
NORTHEAST WISCONSIN

CITY           SKY/WX    TMP DP  RH WIND       PRES   REMARKS
ANTIGO         FOG       50  50 100 CALM      30.05R VSB 3/4
STURGEON BAY   CLEAR     57  54  88 CALM      30.03R
GREEN BAY      CLEAR     57  57 100 CALM      30.02R FOG
MANITOWOC      CLEAR     61  60  97 CALM      30.03R FOG
APPLETON       MOCLDY    61  57  88 CALM      30.03R
CLINTONVILLE     N/A     54  54 100 CALM      30.03R FOG
OSHKOSH        CLEAR     60  58  92 S3        30.03R
$$

WIZ032>034-041-042-053>061-011200-
SOUTHWEST WISCONSIN

CITY           SKY/WX    TMP DP  RH WIND       PRES   REMARKS
LA CROSSE      CLEAR     63  61  93 S5        30.04R
SPARTA         MOCLDY    55  53  96 CALM      30.06R
VIROQUA        FAIR      60  57  91 SW3       30.07R
BOSCOBEL       MOCLDY    55  53  93 CALM      30.07R
PRAIRIE DU CHI CLOUDY    57  55  92 CALM      30.06R
PLATTEVILLE    FAIR      60  58  93 CALM      30.07S
$$

WIZ056-057-062-063-064-067-068-011200-
SOUTH CENTRAL WISCONSIN

CITY           SKY/WX    TMP DP  RH WIND       PRES   REMARKS
BARABOO/DELLS  CLEAR     58  55  87 CALM      30.05R
LONE ROCK      FOG       58  54  86 CALM      30.06R VSB 1/4
WATERTOWN      CLEAR     55  55  99 CALM      30.05R
MADISON        CLEAR     58  56  93 CALM      30.05S FOG
MIDDLETON      FAIR      56  55  96 CALM      30.06R
MONROE         CLEAR     59  55  88 SW7       30.07R
JANESVILLE     CLEAR     59  55  88 CALM      30.06R
$$

WIZ051-052-058>065-066-070>072-011200-
SOUTHEAST WISCONSIN

CITY           SKY/WX    TMP DP  RH WIND       PRES   REMARKS
MILWAUKEE      PTCLDY    65  57  75 W5        30.05R
WAUKESHA       CLEAR     55  55 100 CALM      30.06S
MILWAUKEE/TIMM CLEAR     61  55  82 CALM      30.06R
RACINE         CLEAR     63  57  81 W5        30.07R
BURLINGTON     CLEAR     54  53  97 CALM      30.06R
KENOSHA        CLEAR     58  56  93 SW6       30.06R
FOND DU LAC    PTCLDY    61  57  87 CALM      30.04S
SHEBOYGAN      CLEAR     59  57  93 W3        30.03R
WEST BEND      CLEAR     57  54  88 CALM      30.05R
JUNEAU         CLEAR     58  55  91 CALM      30.06S
$$

LSZ147-162-011200-
LAKE SUPERIOR

STATION/POSITION TIME  TEMP    WIND        PRES    WAVE
                       AIR SEA DIR/SP/G            HT/PER
                 (UTC) (F)     (DEG/KT/KT) (MB)    (FT/S)
W MID LAKE BUOY  1050   46 43   20/  6/  6 1017.0R   0
PORT WING        1040   54     130/  2/  4 1016.9R
SAXON HARBOR     1040          200/  2/  5 1016.6R
$$

LMZ867-665-643>646-011200-
LAKE MICHIGAN

STATION/POSITION TIME  TEMP    WIND        PRES    WAVE
                       AIR SEA DIR/SP/G            HT/PER
                 (UTC) (F)     (DEG/KT/KT) (MB)    (FT/S)
N MID LAKE BUOY  1050   56 54  190/  4/  4 1016.1R   1
NORTHPORT PIER   1000   60      CALM  /  1 1015.9R
SISTER BAY       1010   64     140/  6/  9   N/A
ALGOMA LAKESHORE 1021          320/  6/  8   N/A
KEWAUNEE LAKESHO 1000   59     290/  4/  6 1015.2S
SHEBOYGAN LAKESH 1100   67     260/  9/ 10 1016.8R
PORT WASHINGTON  1000   66     280/  4/  8 1017.3R
ATWATER BUOY     1100   66     240/  8     1018.2R
MILWAUKEE LAKESH 1000   68     270/  5/  6   N/A
S MID LAKE BUOY  1050   64 62  240/  6/  6 1017.6R   0
KENOSHA   LAKESH 1100   66     260/  9/ 11 1017.6R
$$

TC  - TEMPERATURE IN CELSIUS
VSB - VISIBILITY IN STATUTE MILES
WCI - WIND CHILL INDEX
HX  - HEAT INDEX



USA.gov is the U.S. government's official web portal to all federal, state and local government web resources and services.